BEIDOU-3 M5 (C23)

Last updated on Sat Aug 15 2026 00:03:26 GMT+0000 (Coordinated Universal Time)

1 43581U 18062A 26225.02430255 .00000001 00000+0 00000+0 0 9995 2 43581 54.0853 180.3724 0005167 298.6414 61.2581 1.86228807 54695
UTC large
Height (km)
Speed (km/s)
/
Latitude / Longitude
Inclination (degrees)
Orbital Period (minutes)
Azimuth
Elevation
Range (km)
Doppler Factor

Next 0 passes for location: London (51.5072 / 0.1276)

No passes found over London.
BEIDOU-3 M5 (C23)